Location: Unspecified
(34.4950°S, 58.5160°W)
Time: 03:46:48
(UTC+00:00)

Envisat - Visible Passes

Search period start: 18 February 2026 00:00
Search period end: 28 February 2026 00:00
Orbit: 761 x 763 km, 98.4° (Epoch: 17 February)

Date Brightness Start Highest point End Pass type
(mag) Time Alt. Az. Time Alt. Az. Time Alt. Az.
18 Feb 5.3 05:53:04 17° SSW 05:53:04 17° SSW 05:54:14 10° SSW visible
19 Feb 5.6 05:14:56 16° SSE 05:14:56 16° SSE 05:16:06 10° S visible
20 Feb 6.0 04:36:49 10° SSE 04:36:49 10° SSE 04:36:59 10° SSE visible
20 Feb 5.5 06:16:57 13° SSW 06:16:57 13° SSW 06:17:29 10° SSW visible
21 Feb 5.6 05:38:50 15° S 05:38:50 15° S 05:39:45 10° S visible
22 Feb 5.9 05:00:42 13° SSE 05:00:42 13° SSE 05:01:20 10° SSE visible
23 Feb 5.6 06:02:42 12° SSW 06:02:42 12° SSW 06:03:09 10° SSW visible
24 Feb 5.8 05:24:35 13° S 05:24:35 13° S 05:25:10 10° S visible
26 Feb 5.8 05:48:27 11° S 05:48:27 11° S 05:48:43 10° S visible
27 Feb 6.0 05:10:20 11° S 05:10:20 11° S 05:10:29 10° S visible
